Volver al catálogo

STARLINK-32519

ActivoComunicacionesVLEO
NORAD 62317·PAYLOAD·🇺🇸 United States

Lanzado Dec 13, 2024 desde Vandenberg Space Force Base

Loading…

Próximos Pases (próximas 24 horas)

TLE

ActualizadoSource: CelesTrak SupGP

Época: Sep 14, 2026, 20:37 UTC

1 62317C 24239S   26257.85951389  .00024904  00000+0  80119-3 0  2576
2 62317  53.1586  21.0799 0001298  80.4546   8.2182 15.31676111    18

Sigue STARLINK-32519 en tiempo real con AllMySat

Download on the App Store